Overview Statistics Trail Chart Weather Telemetry Raw packets
 

This is the latest recevied weather packets stored in our database for station/object WX6HNX-5. If no packets are shown the sender has not sent any weather packets the latest 10 day(s).

<< 9 10 11 12 13 14 15 >>
Time Temp. Humidity Pressure Rain* Wind** Luminosity Snow
1777738801 22.78° C 51% 1011.3 hPa 0 mm - - -
1777738201 22.78° C 52% 1011.4 hPa 0 mm - - -
1777737901 22.78° C 53% 1011.3 hPa 0 mm - - -
1777737601 22.22° C 53% 1011.2 hPa 0 mm - - -
1777737301 22.22° C 53% 1011.3 hPa 0 mm - - -
1777737002 21.67° C 53% 1011.4 hPa 0 mm - - -
1777736701 22.22° C 53% 1011.4 hPa 0 mm - - -
1777736401 22.22° C 53% 1011.3 hPa 0 mm - - -
1777736101 22.22° C 54% 1011.3 hPa 0 mm - - -
1777735802 21.67° C 54% 1011.3 hPa 0 mm - - -
1777735501 21.67° C 56% 1011.3 hPa 0 mm - - -
1777735201 21.11° C 56% 1011.3 hPa 0 mm - - -
1777734601 21.11° C 58% 1011.1 hPa 0 mm - - -
1777734001 20° C 61% 1011.1 hPa 0 mm - - -
1777733701 19.44° C 62% 1011 hPa 0 mm - - -
1777733401 18.89° C 63% 1011 hPa 0 mm - - -
1777732924 18.89° C 64% 1011.1 hPa 0 mm - - -
1777732624 18.33° C 64% 1011.2 hPa 0 mm - - -
1777732324 18.33° C 66% 1011.1 hPa 0 mm - - -
1777731724 17.22° C 68% 1011.1 hPa 0 mm - - -
1777731426 17.22° C 69% 1011 hPa 0 mm - - -
1777731124 16.67° C 70% 1010.9 hPa 0 mm - - -
1777730777 16.11° C 71% 1010.8 hPa 0 mm - - -
1777730177 15.56° C 72% 1010.7 hPa 0 mm - - -
1777729877 15° C 72% 1010.6 hPa 0 mm - - -

* Rain latest hour (hover to see other rain measurements)
** Current wind speed in m/s (hover to see current wind gust speed)